[[{"header":{"parameterUnit":"m.s-1","parameterCategory":1,"la1":30.2991,"la2":30.254,"lo1":-89.0895,"lo2":-89.0444,"dy":0.0017,"dx":0.0017,"nx":28,"ny":28,"refTime":"2024-07-03T21:00:00:Z","depth":0,"parameterNumber":2,"parameterNumberName":"U-component_of_WINDS"},"data":[0,0,0,0,0,0,0,0,0,0,0,0,0,0,0,0,0,0,0,0,0,0,0,0,0,0,0,0,0,0,0,0,0,0,0,0,0,0,0,0,0,0,0,0,0,0,0,0,0,0,0,0,0,0,0,0,0,0,3.9425,3.9426,0,3.9552,3.9553,3.9555,3.9507,3.9504,3.9501,3.9499,3.9631,3.9637,3.9643,0,0,0,0,0,0,0,0,0,0,0,0,0,3.9142,3.9148,3.9425,3.9426,3.9428,3.9552,3.9553,3.9555,3.9508,3.9504,3.9501,3.9497,3.9629,3.9636,3.9644,0,0,0,0,0,0,0,0,0,0,0,0,0,3.9267,3.9149,3.9425,3.9419,3.942,3.9551,3.9553,3.9556,3.9508,3.9504,3.95,3.9496,3.9626,3.9635,3.9645,3.979,0,0,3.9673,3.9677,0,0,0,0,0,0,0,0,3.926,3.9277,3.9418,3.942,3.9421,3.9509,3.9502,3.9634,3.9509,3.9475,3.9498,3.9493,3.9594,3.9606,3.9639,3.9796,3.9801,3.9674,3.968,3.9684,3.9686,0,0,0,0,0,0,0,3.9251,3.9271,3.9475,3.942,3.9422,3.9411,3.9424,3.9527,3.9557,3.9478,3.9474,3.949,3.9594,3.963,3.9642,3.9803,3.9674,3.9682,3.9688,3.9691,4.0083,4.0088,0,0,0,0,0,0,3.9242,3.9265,3.9471,3.9479,3.9328,3.9419,3.9434,3.9485,3.9556,3.9563,3.9494,3.9487,3.9616,3.9631,3.9646,3.9819,3.9684,3.9692,3.9698,4.0078,4.0084,4.0089,0,0,0,0,0,0,3.9236,3.9261,3.9466,3.9371,3.9396,3.9429,3.9487,3.949,3.9526,3.9568,3.9573,3.9525,3.9614,3.9633,3.9754,3.9823,3.9697,3.9705,4.0073,4.008,4.0087,4.0166,0,0,0,0,0,0,3.9228,3.9259,3.9314,3.9373,3.9401,3.9571,3.9491,3.9496,3.9542,3.9535,3.9599,3.9606,3.9612,3.974,3.9763,3.9833,3.9712,4.0066,4.0076,4.0084,4.0157,4.0175,4.019,0,0,0,0,0,3.9218,3.9332,3.9317,3.9342,3.9471,3.9575,3.9592,3.9596,3.9548,3.9604,3.963,3.9604,3.9812,3.9753,3.9778,3.9852,4.0062,4.0073,4.0084,4.015,4.0172,4.019,0,0,0,0,0,0,3.9282,3.934,3.9324,3.946,3.9513,3.9567,3.9637,3.9619,3.9687,3.9677,3.968,3.9695,3.9819,3.9848,3.9781,3.9995,3.993,3.9946,3.9972,3.9992,4.0009,3.9998,3.972,0,0,0,0,0,3.9312,3.9391,3.9438,3.9554,3.9581,3.9605,3.965,3.9649,3.9704,3.9726,3.9761,3.9816,3.9894,3.9945,4.0019,4.0162,4.0174,4.0225,4.0242,4.0255,4.0269,4.0345,4.0367,4.0125,4.0125,4.0124,0,0,3.9375,3.9416,3.9466,3.9568,3.9608,3.969,3.9624,3.9714,3.9774,3.974,3.9855,3.9883,3.9944,4.0076,4.0136,4.0104,4.0339,4.0269,4.0279,4.0286,4.0358,4.0381,4.0401,4.0132,4.0131,4.0129,0,0,3.9531,3.9571,3.9671,3.9712,3.9774,3.9789,3.9813,3.987,3.9887,4.0002,3.9977,4.005,4.0184,4.0228,4.0268,4.044,4.0417,4.0464,4.0549,4.0623,4.0642,4.0659,4.0718,4.0739,4.0478,4.0478,4.0478,0,3.9601,3.9723,3.9725,3.9816,3.986,3.9832,3.9933,3.9974,4.0057,4.0089,4.0052,4.0218,4.0258,4.0399,4.044,4.0474,4.0501,4.0456,4.0639,4.0656,4.0672,4.0728,4.0751,4.0483,4.0482,4.0482,4.0481,0,3.9805,3.989,3.9964,4.0043,4.0096,4.0192,4.0208,4.0262,4.0256,4.0275,4.0392,4.0438,4.052,4.0554,4.0549,4.0693,4.0671,4.0637,4.0571,4.07,4.0753,4.0775,4.049,4.0489,4.0487,4.0486,0,0,4.0005,4.0083,4.011,4.0145,4.0211,4.0276,4.0371,4.045,4.0495,4.0554,4.0632,4.0746,4.0713,4.0759,4.0759,4.0824,4.0955,4.0782,4.0783,4.081,4.1114,4.1138,4.1163,4.094,4.0945,4.0948,4.1108,0,4.0164,4.0328,4.0332,4.0483,4.056,4.0534,4.0616,4.0665,4.0685,4.0754,4.0777,4.0856,4.0809,4.0836,4.0899,4.0925,4.1015,4.0914,4.1012,4.1016,4.0996,4.1191,4.1217,4.1366,4.1129,4.1133,4.1135,0,4.0372,4.0435,4.0593,4.0646,4.0679,4.0752,4.0824,4.089,4.0946,4.0955,4.1006,4.0996,4.1092,4.1024,4.1155,4.1086,4.1127,4.1146,4.1151,4.1159,4.1082,4.1202,4.1414,4.1436,4.1168,4.1166,4.1163,0,4.0499,4.0624,4.0734,4.0765,4.083,4.0882,4.0912,4.0963,4.1009,4.1073,4.1102,4.1177,4.1217,4.1275,4.1285,4.1234,4.1416,4.1349,4.1426,4.1426,4.1464,4.1461,4.1683,4.1494,4.1494,4.1493,4.1493,0,4.0675,4.0773,4.0792,4.0859,4.0967,4.0971,4.1077,4.1103,4.1148,4.122,4.1203,4.1271,4.1281,4.1352,4.1361,4.1467,4.1486,4.1496,4.1497,4.1497,4.1495,4.1522,4.1511,4.1499,4.1498,4.1497,4.1496,0,4.0835,4.0852,4.097,4.1021,4.1036,4.1113,4.1157,4.1222,4.124,4.1331,4.1352,4.1381,4.1463,4.1479,4.1576,4.1582,4.1708,4.17,4.1689,4.1687,4.1763,4.1754,4.2008,4.2041,4.1832,4.1834,4.1836,0,4.0946,4.1019,4.1078,4.1124,4.1156,4.1232,4.1279,4.1285,4.1335,4.1402,4.1458,4.1538,4.1602,4.1734,4.1763,4.1837,4.1829,4.1913,4.184,4.1837,4.1828,4.1823,4.1829,4.1927,4.1929,4.1931,4.1932,0,4.1139,4.1144,4.1211,4.1282,4.1339,4.1395,4.1449,4.1488,4.1501,4.1558,4.1641,4.169,4.1788,4.1867,4.1941,4.1972,4.1954,4.1955,4.1976,4.1976,4.1965,4.197,4.1725,4.1949,4.1947,4.1946,4.1945,4.1944,4.1276,4.134,4.139,4.1466,4.1507,4.1557,4.1619,4.1644,4.1713,4.1793,4.1793,4.1883,4.1935,4.2032,4.2067,4.2138,4.2111,4.2143,4.215,4.2157,4.2163,4.1956,4.2152,4.2151,4.2151,4.215,4.215,0,4.1467,4.1498,4.1568,4.1642,4.1702,4.168,4.1738,4.1789,4.1868,4.1918,4.198,4.2075,4.2151,4.2186,4.2261,4.231,4.2304,4.233,4.2325,4.2332,4.2184,4.2157,4.2333,4.2333,4.2333,4.2333,4.2333,4.2333,4.1573,4.1679,4.1689,4.1814,4.1845,4.1932,4.1966,4.2012,4.2051,4.2157,4.222,4.2242,4.2286,4.2363,4.2432,4.244,4.2468,4.2497,4.2501,4.2362,4.2343,4.2325,4.2299,4.2503,4.2504,4.2643,4.2645,4.2646]},{"header":{"parameterUnit":"m.s-1","parameterCategory":1,"la1":30.2991,"la2":30.254,"lo1":-89.0895,"lo2":-89.0444,"dy":0.0017,"dx":0.0017,"nx":28,"ny":28,"refTime":"2024-07-03T21:00:00:Z","depth":0,"parameterNumber":3,"parameterNumberName":"V-component_of_WINDS"},"data":[0,0,0,0,0,0,0,0,0,0,0,0,0,0,0,0,0,0,0,0,0,0,0,0,0,0,0,0,0,0,0,0,0,0,0,0,0,0,0,0,0,0,0,0,0,0,0,0,0,0,0,0,0,0,0,0,0,0,0.7053,0.7053,0,0.7059,0.7059,0.706,0.7039,0.7038,0.7038,0.7037,0.7045,0.7046,0.7047,0,0,0,0,0,0,0,0,0,0,0,0,0,0.7022,0.7023,0.7053,0.7053,0.7053,0.7059,0.7059,0.706,0.7039,0.7038,0.7038,0.7037,0.7045,0.7046,0.7047,0,0,0,0,0,0,0,0,0,0,0,0,0,0.7033,0.7023,0.7053,0.7043,0.7043,0.7059,0.7059,0.706,0.7039,0.7038,0.7037,0.7037,0.7045,0.7046,0.7047,0.7073,0,0,0.7051,0.7051,0,0,0,0,0,0,0,0,0.7032,0.7034,0.7045,0.7044,0.7043,0.7047,0.7052,0.7064,0.704,0.7041,0.7037,0.7036,0.7047,0.7048,0.7051,0.7074,0.7074,0.7051,0.7051,0.7052,0.7052,0,0,0,0,0,0,0,0.7031,0.7033,0.7055,0.7045,0.7044,0.7039,0.7039,0.7054,0.7049,0.704,0.7039,0.704,0.7046,0.705,0.7051,0.7074,0.7051,0.7052,0.7053,0.7053,0.7118,0.7119,0,0,0,0,0,0,0.7032,0.7033,0.7055,0.7056,0.7035,0.704,0.7041,0.7047,0.7049,0.7048,0.7041,0.7039,0.7048,0.705,0.7051,0.7082,0.7052,0.7053,0.7054,0.7117,0.7118,0.7119,0,0,0,0,0,0,0.7031,0.7034,0.7055,0.7044,0.7046,0.7042,0.7049,0.7048,0.7051,0.7049,0.7048,0.7046,0.7048,0.705,0.7068,0.7082,0.7054,0.7055,0.7115,0.7117,0.7118,0.7143,0,0,0,0,0,0,0.703,0.7034,0.7044,0.7044,0.7047,0.7071,0.705,0.7048,0.7053,0.7051,0.7053,0.7053,0.7047,0.7066,0.7069,0.7083,0.7056,0.7114,0.7116,0.7118,0.7141,0.7146,0.7149,0,0,0,0,0,0.7029,0.7051,0.7045,0.7047,0.7059,0.7072,0.7074,0.7066,0.7055,0.7065,0.7063,0.7053,0.708,0.7068,0.7071,0.7086,0.7113,0.7116,0.7118,0.714,0.7145,0.7149,0,0,0,0,0,0,0.7054,0.7051,0.7044,0.7066,0.7069,0.7069,0.7081,0.7072,0.7079,0.7077,0.7068,0.7069,0.7088,0.7089,0.7076,0.7111,0.7094,0.7097,0.711,0.7115,0.7119,0.7118,0.7057,0,0,0,0,0,0.7061,0.7072,0.7069,0.7089,0.7091,0.7086,0.7091,0.7085,0.7088,0.709,0.7089,0.7093,0.7102,0.7108,0.7117,0.7141,0.7141,0.7152,0.7156,0.716,0.7162,0.7175,0.718,0.7126,0.7126,0.7126,0,0,0.7078,0.7078,0.7085,0.7094,0.7096,0.7107,0.7087,0.71,0.7108,0.7092,0.7109,0.7108,0.7112,0.7133,0.7142,0.7134,0.7177,0.7162,0.7165,0.7166,0.7177,0.7183,0.7187,0.7128,0.7128,0.7127,0,0,0.7114,0.7115,0.7131,0.7133,0.7136,0.7132,0.7136,0.7136,0.7135,0.7151,0.7139,0.7148,0.7165,0.7167,0.7171,0.7206,0.7196,0.7209,0.723,0.7242,0.7246,0.7249,0.7262,0.7266,0.7211,0.7211,0.7212,0,0.7135,0.715,0.7141,0.7154,0.7158,0.7143,0.716,0.7162,0.7167,0.717,0.7161,0.718,0.7181,0.7202,0.7211,0.7214,0.7218,0.7209,0.7246,0.7249,0.7253,0.7264,0.7269,0.7213,0.7213,0.7213,0.7212,0,0.7175,0.7186,0.7199,0.7204,0.7209,0.7224,0.7217,0.7224,0.7217,0.7214,0.723,0.7231,0.7239,0.7243,0.7237,0.7263,0.7258,0.7247,0.7231,0.7259,0.727,0.7275,0.7215,0.7215,0.7214,0.7214,0,0,0.7228,0.7226,0.7231,0.7232,0.7233,0.7242,0.7256,0.7263,0.7268,0.7272,0.7283,0.7296,0.7286,0.729,0.7284,0.7294,0.7322,0.7282,0.7282,0.7289,0.735,0.7358,0.7364,0.7315,0.7316,0.7316,0.735,0,0.7263,0.7286,0.7278,0.7301,0.7311,0.7296,0.7308,0.731,0.7307,0.7315,0.7312,0.7321,0.7307,0.7309,0.7319,0.7316,0.7334,0.7314,0.7325,0.7326,0.7325,0.7369,0.7378,0.741,0.7354,0.7355,0.7355,0,0.7308,0.7312,0.7337,0.7335,0.7339,0.7349,0.7354,0.7362,0.7364,0.7361,0.7364,0.7355,0.7369,0.7351,0.7369,0.7356,0.736,0.7359,0.736,0.7361,0.7343,0.7372,0.742,0.7424,0.7362,0.7361,0.7361,0,0.7343,0.7356,0.7372,0.7373,0.7372,0.7379,0.7379,0.7379,0.7384,0.7388,0.7391,0.7397,0.7401,0.7406,0.7399,0.7387,0.7417,0.74,0.7415,0.7416,0.7423,0.7423,0.7472,0.7425,0.7425,0.7425,0.7425,0,0.7384,0.7399,0.7388,0.7398,0.7414,0.7404,0.7421,0.7419,0.7419,0.7428,0.7416,0.7424,0.7414,0.7422,0.7417,0.7432,0.7434,0.7432,0.743,0.7433,0.7433,0.7436,0.7434,0.7426,0.7426,0.7426,0.7426,0,0.7427,0.742,0.7436,0.7432,0.7432,0.7444,0.7441,0.745,0.7446,0.7458,0.746,0.7453,0.7462,0.7455,0.7463,0.746,0.748,0.7475,0.7479,0.7478,0.7494,0.7493,0.7547,0.7554,0.7503,0.7503,0.7504,0,0.7454,0.7465,0.7462,0.7467,0.7467,0.7475,0.7479,0.7469,0.7474,0.7476,0.7484,0.7491,0.7497,0.7511,0.7507,0.7513,0.7509,0.7527,0.751,0.7512,0.7509,0.7509,0.751,0.7531,0.7532,0.7532,0.7533,0,0.7501,0.7497,0.7503,0.7507,0.7512,0.7515,0.7518,0.7522,0.7512,0.7518,0.7526,0.753,0.7538,0.7545,0.755,0.755,0.754,0.7538,0.7542,0.7546,0.7547,0.7546,0.7489,0.7537,0.7537,0.7537,0.7536,0.7536,0.7537,0.7546,0.7545,0.7552,0.7552,0.7554,0.7562,0.7558,0.7565,0.757,0.7563,0.7573,0.7573,0.7578,0.7579,0.7587,0.7579,0.7585,0.7586,0.7588,0.759,0.7546,0.7588,0.7587,0.7587,0.7587,0.7587,0,0.7584,0.7582,0.7588,0.7591,0.7596,0.7585,0.7587,0.7592,0.7601,0.7601,0.7606,0.7615,0.7622,0.7618,0.7624,0.7631,0.7626,0.7632,0.7632,0.7632,0.7597,0.7593,0.7636,0.7636,0.7636,0.7636,0.7636,0.7636,0.7609,0.7623,0.7618,0.7633,0.7631,0.764,0.7641,0.7643,0.7643,0.7654,0.7659,0.7656,0.7655,0.766,0.7665,0.7664,0.7667,0.7675,0.7672,0.7639,0.7635,0.763,0.7626,0.7676,0.7676,0.7706,0.7707,0.7707]}]]